AUREOLE 1

导读 | 星芒AI

AUREOLE 1 是一颗由法国于1964年发射的科学卫星,主要用于研究地球电离层和大气层的特性。该卫星搭载了多种仪器,用于测量宇宙射线、中性粒子和电离层密度等参数。AUREOLE 1 的成功发射标志着法国在空间科学领域的独立能力,为后续的卫星研究奠定了基础。其任务数据对理解地球空间环境和太阳活动的影响具有重要意义。

基本信息
目录编号:
5729
目录名称:
AUREOLE 1
国际标识:
1971-119A
轨道中心:
EARTH
卫星名称:
AUREOLE 1
卫星全名:
--
卫星状态:
在轨 (已飞行19712 天)
发射日期:
1971-12-27 UTC
国别 :
法国 (FR)
星等 :
--
轨道信息
数据来源 国际轨道数据
星历时间: 2025-12-15T05:31:44+0800
20小时前
查看轨道信息
半长轴: 7280.009km
偏心率: 0.0714678
轨道倾角: 73.953°
近地点辐角 291.459°
升交点赤经 51.013°
平近点角 61.180°
近地点: 381.587km
远地点: 1422.161km
周期: 103.029分钟
每日圈数: 13.976708
详细信息
使用方式:
暂无
2D轨道图
3D轨道图
轨道高度分析图
轨道倾角分析图
轨道综合分析图
查看轨道综合分析图